Station 46053 (LLNR 196) - EAST SANTA BARBARA - 12NM Southwest of Santa Barbara, CA Image indicating link to RSS feed of recent meteorological observations for station 46053


Conditions at 46053 as of
(1:40 am PDT)
0840 GMT on 06/23/2024:
     

Click on the graph icon in the table below to see a time series plot of the last five days of that observation.

5-day plot - Wind Direction Wind Direction (WDIR):WNW ( 290 deg true )
5-day plot - Wind Speed Wind Speed (WSPD): 3.9 kts
5-day plot - Wind Gust Wind Gust (GST): 5.8 kts
5-day plot - Atmospheric Pressure Atmospheric Pressure (PRES):29.84 in
5-day plot - Air Temperature Air Temperature (ATMP): 52.2 °F
5-day plot - Water Temperature Water Temperature (WTMP): 56.8 °F
5-day plot - Wind Chill Wind Chill (CHILL): 51.1 °F
5-day plot - Wind Speed at 10 Meters Wind Speed at 10 meters (WSPD10M): 3.9 kts
5-day plot - Wind Speed at 20 Meters Wind Speed at 20 meters (WSPD20M): 3.9 kts
5-day plot -  Wind Speed, Wind Gust and Atmospheric Pressure Combined plot of Wind Speed, Gust, and Air Pressure
Supplemental Measurements
Highest 1-minute Wind Speed
Time (PDT)5-day plot - 1-Minute Wind Speed WSPD 5-day plot - 1-Minute Wind Direction WDIR
1:32 am 3.9 kts-
Previous observations
TIME
(PDT)
5-day plot - Wind Direction
WDIR
 
5-day plot - Wind Speed
WSPD
kts
5-day plot - Wind Gust
GST
kts
5-day plot - Wave Height
WVHT
ft
5-day plot - Dominant Wave Period
DPD
sec
5-day plot - Average Wave Period
APD
sec
5-day plot - Mean Wave Direction
MWD
 
5-day plot - Atmospheric Pressure
PRES
in
5-day plot - Pressure Tendency
PTDY
in
5-day plot - Air Temperature
ATMP
°F
5-day plot - Water Temperature
WTMP
°F
5-day plot - Dew Point
DEWP
°F
5-day plot - Salinity
SAL
psu
5-day plot - Visibility
VIS
nmi
5-day plot - Tide (above MLLW)
TIDE
ft
2024-06-23 01:30 am W 1.9 3.9----29.84- 52.2 56.8----
2024-06-23 01:20 am W 1.9 3.9 2.3 85.1 W29.85- 52.2 56.8----
2024-06-23 01:10 amWSW 1.9 5.8 2.3-5.1 W29.85- 52.5 57.0----
2024-06-23 01:00 amWSW 1.9 3.9----29.85+0.01 52.5 57.2----
2024-06-23 12:50 am NW 1.9 3.9 2.3 84.9WSW29.85- 52.5 57.2----
2024-06-23 12:40 amWNW 1.9 3.9----29.85- 52.7 57.2----
2024-06-23 12:30 amWNW 3.9 5.8----29.85- 52.5 57.2----
2024-06-23 12:20 am W 1.9 3.9 2.3 84.9WSW29.85- 52.5 57.0----
2024-06-23 12:10 amWNW 1.9 3.9 2.3-4.9WSW29.86- 52.7 57.0----
2024-06-23 12:00 am W 1.9 3.9----29.86+0.04 52.7 56.8----
2024-06-22 11:50 pm W 1.9 3.9 2.3 85.0WSW29.86- 52.7 56.8----
2024-06-22 11:40 pmWNW 3.9 5.8----29.86- 52.9 56.8----
2024-06-22 11:30 pm W 1.9 3.9----29.85- 52.9 56.8----
2024-06-22 11:20 pmWSW 3.9 5.8 2.3 84.9WSW29.86- 52.9 56.7----
2024-06-22 11:10 pm W 3.9 5.8 2.3-4.9WSW29.86- 52.9 56.8----
2024-06-22 11:00 pm W 5.8 7.8----29.85+0.04 53.1 56.8----
2024-06-22 10:50 pm W 7.8 9.7 2.3 84.9WSW29.85- 53.1 56.8----
2024-06-22 10:40 pm W 7.8 9.7----29.85- 52.9 56.8----
2024-06-22 10:30 pm W 5.8 7.8----29.85- 52.9 56.7----
2024-06-22 10:20 pm W 5.8 7.8 2.6 84.9WSW29.85- 52.9 56.7----
2024-06-22 10:10 pmWSW 5.8 7.8----29.85- 53.1 56.8----
2024-06-22 10:00 pm W 5.8 9.7----29.84+0.04 53.1 56.8----
2024-06-22 09:50 pm W 7.8 9.7 2.6 74.8 W29.84- 53.2 56.8----
2024-06-22 09:40 pm W 7.8 9.7 2.6-4.8 W29.83- 53.2 56.8----
2024-06-22 09:30 pm W 7.8 9.7----29.83- 53.2 56.8----
2024-06-22 09:20 pm W 7.8 9.7 2.6 84.6 W29.83- 53.2 56.8----
2024-06-22 09:10 pm W 7.8 9.7 2.6-4.6 W29.83- 53.2 57.0----
2024-06-22 09:00 pm W 7.8 9.7----29.83+0.03 53.2 57.0----
2024-06-22 08:50 pm W 7.8 9.7 2.6 74.6 W29.82- 53.4-----
2024-06-22 08:40 pm W 7.8 9.7----29.82- 53.4 57.2----
2024-06-22 08:30 pm W 7.8 11.7----29.82- 53.6 57.2----
2024-06-22 08:20 pm W 7.8 9.7 2.6 84.9 W29.82- 53.6 57.2----
2024-06-22 08:10 pmWSW 9.7 9.7 2.6-4.9 W29.82- 53.6 57.2----
2024-06-22 08:00 pm W 7.8 11.7----29.81+0.02 53.8 57.2----
2024-06-22 07:50 pm W 7.8 9.7 3.0 85.1 W29.81- 53.8 57.2----
2024-06-22 07:40 pm W 7.8 9.7 3.0-5.1 W29.81- 53.8 57.4----
2024-06-22 07:30 pm W 7.8 9.7----29.80- 54.0 57.4----
2024-06-22 07:20 pm W 9.7 11.7 3.0 84.9 W29.80- 54.0 57.4----
2024-06-22 07:10 pm W 9.7 11.7 3.0-4.9 W29.80- 54.1 57.4----
2024-06-22 07:00 pm W 7.8 11.7----29.80+0.00 54.1 57.4----
2024-06-22 06:50 pm W 9.7 13.6 3.0 84.8WSW29.80- 54.3 57.4----
2024-06-22 06:40 pm W 9.7 11.7 3.0-4.8WSW29.80- 54.5 57.6----
2024-06-22 06:30 pm W 9.7 11.7----29.80- 54.5 57.6----
2024-06-22 06:20 pm W 9.7 11.7 3.3 85.1 W29.79- 54.7 57.6----
2024-06-22 06:10 pm W 9.7 11.7----29.80- 54.7 57.6----
2024-06-22 06:00 pm W 9.7 11.7----29.79-0.01 54.7 57.6----
2024-06-22 05:50 pm W 11.7 13.6 3.0 85.0 W29.79- 54.7 57.4----
2024-06-22 05:40 pm W 9.7 11.7----29.79- 54.9 57.4----
2024-06-22 05:30 pm W 9.7 11.7----29.79- 55.0 57.4----
2024-06-22 05:20 pm W 9.7 13.6 3.3 85.4 W29.80- 55.0 57.4----
2024-06-22 05:10 pm W 9.7 13.6----29.79- 54.9 57.2----
2024-06-22 05:00 pm W 9.7 11.7----29.80-0.02 55.0 57.4----
2024-06-22 04:50 pm W 9.7 11.7 3.0 85.5 W29.80- 55.2 57.4----
2024-06-22 04:40 pm W 9.7 11.7----29.80- 55.0 57.4----
2024-06-22 04:10 pm W 9.7 11.7 3.0-5.6 W29.80- 55.2 57.2----
2024-06-22 04:00 pm W 9.7 11.7----29.80-0.02 55.4 57.2----
2024-06-22 03:50 pm W 7.8 9.7 3.0 85.4 W29.80- 55.4 57.2----
2024-06-22 03:40 pm W 9.7 11.7----29.80- 55.6 57.4----
2024-06-22 03:30 pm W 7.8 9.7----29.80- 55.8 57.4----
2024-06-22 03:20 pm W 9.7 11.7 2.6 85.4 W29.80- 55.2 57.4----
2024-06-22 03:10 pm W 9.7 11.7 2.6-5.4 W29.80- 55.0 57.4----
2024-06-22 03:00 pm W 9.7 11.7----29.80-0.02 54.7 57.6----
2024-06-22 02:50 pm W 9.7 11.7 2.6 85.5 W29.81- 54.3 57.6----
2024-06-22 02:40 pm W 9.7 11.7----29.81- 54.3 57.6----
2024-06-22 02:30 pm W 7.8 9.7----29.81- 54.3 57.7----
2024-06-22 02:20 pm W 7.8 9.7 3.0 85.4 W29.81- 54.3 57.7----
2024-06-22 02:10 pm W 7.8 9.7 3.0-5.4 W29.81- 54.3 57.9----
2024-06-22 02:00 pm W 7.8 9.7----29.82-0.01 54.3 57.9----
2024-06-22 01:50 pm W 7.8 9.7 3.0 85.5 W29.82- 54.5 57.9----
2024-06-22 01:40 pm W 7.8 9.7----29.82- 54.3 57.9----
2024-06-22 01:30 pmWSW 7.8 7.8----29.81- 54.3 58.1----
2024-06-22 01:20 pmWSW 5.8 7.8 3.0 85.3 W29.82- 54.3 58.3----
2024-06-22 01:10 pmWSW 5.8 7.8 3.0-5.3 W29.82- 54.1 58.1----
2024-06-22 01:00 pmWSW 5.8 7.8----29.82+0.00 54.0 58.1----
2024-06-22 12:50 pmWSW 5.8 7.8 3.3 95.5 W29.82- 54.0 58.1----
2024-06-22 12:40 pmWSW 5.8 5.8----29.82- 53.8 58.1----
2024-06-22 12:30 pmWSW 5.8 7.8----29.82- 53.6 58.1----
2024-06-22 12:20 pmWSW 5.8 7.8 3.3 75.4 W29.82- 53.6 57.9----
2024-06-22 12:10 pmWSW 5.8 7.8 3.3-5.4 W29.83- 53.4 57.9----
2024-06-22 12:00 pm SW 5.8 7.8----29.82+0.01 53.2 57.9----
2024-06-22 11:50 am SW 5.8 7.8 3.0 85.3 W29.83- 53.2 57.7----
2024-06-22 11:40 am SW 5.8 5.8----29.83- 53.2 57.7----
2024-06-22 11:30 am SW 5.8 7.8----29.83- 53.4 57.7----
2024-06-22 11:20 amWSW 3.9 5.8 3.3 65.3WSW29.83- 53.2 57.6----
2024-06-22 11:10 amWSW 3.9 5.8 3.3-5.3WSW29.83- 52.9 57.4----
2024-06-22 11:00 amWSW 3.9 5.8----29.83+0.04 52.7 57.4----
2024-06-22 10:50 amWSW 5.8 7.8 3.3 75.3 W29.83- 52.5 57.2----
2024-06-22 10:40 amWSW 5.8 5.8----29.83- 52.5 57.2----
2024-06-22 10:30 amWSW 5.8 5.8----29.83- 52.3 57.2----
2024-06-22 10:20 amWSW 3.9 7.8 3.3 85.3 W29.83- 52.3 57.0----
2024-06-22 10:10 amWSW 5.8 7.8 3.3-5.3 W29.82- 52.3 57.0----
2024-06-22 10:00 amWSW 3.9 5.8----29.82+0.04 52.3 57.0----
2024-06-22 09:50 amWSW 5.8 7.8 3.6 85.3 W29.82- 52.3 57.0----
2024-06-22 09:40 amWSW 5.8 7.8----29.82- 52.7 56.8----
2024-06-22 09:30 amWSW 5.8 7.8----29.81- 52.7 56.8----
2024-06-22 09:20 am SW 5.8 7.8 3.6 85.3 W29.81- 52.9 56.8----
2024-06-22 09:10 am SW 7.8 7.8----29.81- 52.7 56.8----
2024-06-22 09:00 am SW 7.8 9.7----29.81+0.04 52.9 56.8----
2024-06-22 08:50 am SW 7.8 9.7 3.6 85.2 W29.81- 52.7 56.8----
2024-06-22 08:40 amSSW 5.8 7.8----29.80- 52.7 56.8----
2024-06-22 08:30 am SW 5.8 7.8----29.80- 52.7 56.8----
2024-06-22 08:20 am SW 5.8 7.8 3.6 85.3 W29.79- 52.9 56.8----
2024-06-22 08:10 am SW 7.8 7.8----29.79- 52.7 56.7----
2024-06-22 08:00 am SW 7.8 7.8----29.78+0.03 52.9 56.7----
2024-06-22 07:50 am SW 7.8 9.7 3.9 85.3 W29.78- 53.1 56.7----
2024-06-22 07:40 am SW 7.8 7.8 3.9-5.3 W29.78- 53.2 56.7----
2024-06-22 07:30 am SW 7.8 9.7----29.78- 53.2 56.7----
2024-06-22 07:20 am SW 7.8 9.7 3.9 85.2 W29.78- 53.2 56.7----
2024-06-22 07:10 am SW 7.8 9.7 3.9-5.2 W29.78- 53.4 56.7----
2024-06-22 07:00 am SW 7.8 9.7----29.78+0.04 53.6 56.7----
2024-06-22 06:50 am SW 7.8 9.7 3.9 85.2 W29.78- 53.4 56.7----
2024-06-22 06:40 am SW 7.8 9.7----29.78- 53.2 56.7----
2024-06-22 06:30 am SW 7.8 9.7----29.78- 52.9 56.7----
2024-06-22 06:20 am SW 7.8 9.7 4.3 75.0 W29.78- 52.7 56.7----
2024-06-22 06:10 am SW 7.8 9.7 4.3-5.0 W29.77- 52.9 56.7----
2024-06-22 06:00 am SW 7.8 9.7----29.77+0.02 52.9 56.7----
2024-06-22 05:50 am SW 7.8 11.7 3.6 84.8 W29.77- 53.1 56.8----
2024-06-22 05:40 am SW 9.7 9.7----29.76- 53.1 56.8----
2024-06-22 05:30 am SW 9.7 11.7----29.76- 53.1 56.7----
2024-06-22 05:20 am SW 9.7 11.7 3.9 74.9 W29.76- 53.1 56.7----
2024-06-22 05:10 am SW 9.7 11.7----29.76- 53.2 56.7----
2024-06-22 05:00 am SW 9.7 11.7----29.75+0.00 53.2 56.7----
2024-06-22 04:50 am SW 9.7 13.6 3.9 64.9 W29.75- 53.2 56.7----
2024-06-22 04:40 am SW 9.7 11.7----29.75- 53.4 56.7----
2024-06-22 04:30 am SW 9.7 11.7----29.75- 53.2 56.7----
2024-06-22 04:20 am SW 11.7 13.6 4.3 74.9WSW29.75- 52.9 56.7----
2024-06-22 04:10 am SW 11.7 13.6 4.3-4.9WSW29.75- 53.2 56.7----
2024-06-22 04:00 am SW 9.7 13.6----29.74+0.00 53.4 56.7----
2024-06-22 03:50 am SW 11.7 13.6 4.3 65.0 W29.74- 53.4 56.7----
2024-06-22 03:40 am SW 11.7 13.6 4.3-5.0 W29.75- 53.6 56.7----
2024-06-22 03:30 am SW 11.7 13.6----29.75- 53.4 56.7----
2024-06-22 03:20 am SW 11.7 13.6 4.3 74.9 W29.75- 53.4 56.7----
2024-06-22 03:10 am SW 11.7 13.6 4.3-4.9 W29.75- 53.4 56.7----
2024-06-22 03:00 am SW 11.7 13.6----29.75+0.02 53.6 56.7----
2024-06-22 02:50 am SW 11.7 15.5 4.6 85.0 W29.75- 53.8 56.7----
2024-06-22 02:40 am SW 11.7 15.5----29.75- 53.6 56.8----
2024-06-22 02:30 am SW 13.6 15.5----29.75- 53.4 56.8 53.4---
2024-06-22 02:20 am SW 11.7 15.5 4.9 75.0WSW29.75- 53.4 56.8 53.4---
2024-06-22 02:10 am SW 13.6 15.5 4.9-5.0WSW29.75- 53.8 56.8 53.8---
2024-06-22 02:00 am SW 13.6 17.5----29.75+0.01 53.8 57.0 53.6---
2024-06-22 01:50 am SW 13.6 17.5 4.6 74.9 W29.75- 54.1 57.0 54.0---

Detailed Wave Summary
for 46053 as of (1:10 am PDT)
0810 GMT on 06/23/2024:

These wave data are displayed in rounded times.

     

Click on the graph icon in the table below to see a time series plot of the last five days of that observation.

5-day plot - Significant Wave Height Significant Wave Height (WVHT): 2.3 ft
5-day plot - Swell Height Swell Height (SwH): 2.3 ft
5-day plot - Swell Period Swell Period (SwP): 8.3 sec
5-day plot - Swell Direction Swell Direction (SwD): W
5-day plot - Wind Wave Height Wind Wave Height (WWH): 1.0 ft
5-day plot - Wind Wave Period Wind Wave Period (WWP): 3.7 sec
5-day plot - Wind Wave Direction Wind Wave Direction (WWD): W
5-day plot - Average Wave Period Average Wave Period (APD): 5.1 sec
Previous observations
TIME
(PDT)
5-day plot - Wave Height
WVHT
ft
5-day plot - Swell Height
SwH
ft
5-day plot - Swell Period
SwP
sec
5-day plot - Swell Direction
SwD
 
5-day plot - Wind Wave Height
WWH
ft
5-day plot - Wind Wave Period
WWP
sec
5-day plot - Wind Wave Direction
WWD
 
5-day plot - Wave Steepness
STEEPNESS
 
5-day plot - Average Wave Period
APD
sec
2024-06-23 12:40 am 2.3 2.0 8.3WSW 1.0 3.3 WSW N/A 4.9
2024-06-23 12:10 am 2.3 2.0 7.7WSW 1.0 3.8 WSW N/A 4.9
2024-06-22 11:40 pm 2.3 2.3 8.3WSW 1.0 3.3 WSW N/A 5.0
2024-06-22 11:10 pm 2.3 2.0 8.3WSW 1.0 3.0 WSW N/A 4.9
2024-06-22 10:40 pm 2.3 2.0 8.3WSW 1.0 4.0 WSW N/A 4.9
2024-06-22 10:10 pm 2.6 2.3 7.7WSW 1.3 3.3 WSW N/A 4.9
2024-06-22 09:40 pm 2.6 2.3 7.1 W 1.3 4.0 W AVERAGE 4.8
2024-06-22 09:10 pm 2.6 2.3 7.7 W 1.3 4.0 WSW N/A 4.6
2024-06-22 08:40 pm 2.6 2.3 6.7 W 1.3 3.8 WSW N/A 4.6
2024-06-22 08:10 pm 2.6 2.3 8.3 W 1.3 2.7 WSW SWELL 4.9
2024-06-22 07:40 pm 3.0 2.6 7.7 W 1.3 3.0 WSW AVERAGE 5.1
2024-06-22 07:10 pm 3.0 2.6 7.7 W 1.3 2.9 WSW AVERAGE 4.9
2024-06-22 06:40 pm 3.0 2.6 8.3WSW 1.3 2.7 WSW SWELL 4.8
2024-06-22 06:10 pm 3.3 3.0 8.3 W 1.3 4.3 W SWELL 5.1
2024-06-22 05:40 pm 3.0 2.6 8.3 W 1.3 5.0 W SWELL 5.0
2024-06-22 05:10 pm 3.3 3.0 8.3 W 1.3 5.0 WSW SWELL 5.4
2024-06-22 04:40 pm 3.0 2.6 7.7 W 1.3 4.2 WSW AVERAGE 5.5
2024-06-22 04:10 pm 3.0 3.0 8.3 W 1.0 3.8 WSW SWELL 5.6
2024-06-22 03:40 pm 3.0 2.6 8.3 W 1.0 3.7 WSW SWELL 5.4
2024-06-22 03:10 pm 2.6 2.6 8.3 W 1.0 4.2 WSW SWELL 5.4
2024-06-22 02:40 pm 2.6 2.6 7.7 W 1.0 4.0 WSW SWELL 5.5
2024-06-22 02:10 pm 3.0 2.6 7.7 W 1.0 3.4 WSW AVERAGE 5.4
2024-06-22 01:40 pm 3.0 2.6 8.3 W 1.0 2.9 WSW SWELL 5.5
2024-06-22 01:10 pm 3.0 3.0 8.3 W 1.0 3.7 WSW SWELL 5.3
2024-06-22 12:40 pm 3.3 3.0 9.1 W 1.0 3.3 WSW SWELL 5.5
2024-06-22 12:10 pm 3.3 3.0 7.1 W 1.0 3.8 WSW AVERAGE 5.4
2024-06-22 11:40 am 3.0 3.0 7.7 W 1.3 3.8 WSW AVERAGE 5.3
2024-06-22 11:10 am 3.3 3.3 6.2WSW 1.3 4.0 WSW STEEP 5.3
2024-06-22 10:40 am 3.3 3.0 6.7 W 1.3 4.0 WSW AVERAGE 5.3
2024-06-22 10:10 am 3.3 3.0 7.7 W 1.3 3.8 WSW AVERAGE 5.3
2024-06-22 09:40 am 3.6 3.3 7.7 W 1.3 3.4 WSW AVERAGE 5.3
2024-06-22 09:10 am 3.6 3.3 8.3 W 1.3 3.4 WSW AVERAGE 5.3
2024-06-22 08:40 am 3.6 3.3 8.3 W 1.3 3.4 W AVERAGE 5.2
2024-06-22 08:10 am 3.6 3.3 8.3 W 1.3 3.0 WSW AVERAGE 5.3
2024-06-22 07:40 am 3.9 3.6 8.3 W 1.6 3.8 WSW AVERAGE 5.3
2024-06-22 07:10 am 3.9 3.6 8.3 W 1.6 3.7 WSW AVERAGE 5.2
2024-06-22 06:40 am 3.9 3.6 8.3 W 1.6 3.8 WSW AVERAGE 5.2
2024-06-22 06:10 am 4.3 3.9 7.1 W 1.6 3.7 WSW AVERAGE 5.0
2024-06-22 05:40 am 3.6 3.0 7.7 W 1.6 4.2 WSW AVERAGE 4.8
2024-06-22 05:10 am 3.9 3.3 6.7 W 2.0 4.8 WSW STEEP 4.9
2024-06-22 04:40 am 3.9 3.3 5.9 W 2.3 4.5 W STEEP 4.9
2024-06-22 04:10 am 4.3 3.3 6.7WSW 3.0 5.6 W STEEP 4.9
2024-06-22 03:40 am 4.3 3.3 6.2 W 2.6 4.5 WSW STEEP 5.0
2024-06-22 03:10 am 4.3 3.3 6.7 W 3.0 5.3 WSW STEEP 4.9
2024-06-22 02:40 am 4.6 3.0 7.7 W 3.3 6.2 W AVERAGE 5.0
2024-06-22 02:10 am 4.9 2.6 13.8NNE 3.9 6.7 WSW STEEP 5.0

Plot of wave energy versus frequency (and period)